Location: Riverside Cemetery
(38.3047°N, 99.7773°W)
Time: 03:53:09
(UTC+00:00)

Lacrosse 5 - Pass Details

Date: 19 September 2020
Orbit: 716 x 723 km, 57.0° (Epoch: 20 October)

Event Time Altitude Azimuth Distance (km) Brightness Sun altitude
Exits shadow 09:44:30 35° 9° (N) 1,150 3.1 -30.8°
Drops below altitude 10° 09:47:43 10° 33° (NNE) 2,205 5.1 -30.3°
Sets 09:50:11 0° 39° (NE) 3,129 6.2 -29.9°
